sat.trackr.live / text

‹ back to catalog

STARLINK-1547

NORAD 46347 · 2020-062Y

PAYLOAD ACTIVE UNKNOWN

§ Identity

Operator
Country
US
Launch date
2020-09-03
Launch site
AFETR
Launch vehicle
Mass (kg)
RCS (m²)

Purposes: comms

External: N2YO · Heavens-Above · Gunter

§ Orbital elements

Epoch: 2026-05-25T00:57:47.994048Z

Period
91.02 min
Inclination
53.0311°
Eccentricity
0.0005393
Mean motion
15.82017703 rev/d
Perigee alt
321.1 km
Apogee alt
328.4 km
Semi-major
6,702.9 km
B*
8.3288e-4
RAAN
259.7946°
Arg perigee
334.2591°
Mean anomaly
25.8161°
Rev number
31,768

§ Raw data

STARLINK-15471 46347U 20062Y   26145.04013882  .00176357  00000+0  83288-3 0  99982 46347  53.0311 259.7946 0005393 334.2591  25.8161 15.82017703317680

JSON: /api/v1/satellites/46347 · /tle

For live sub-satellite position, see the globe view (requires WebGL).

§ Visibility from observer

Set your observer location to see the next 7 days of passes ≥ 10°. The values pass through the URL so the page stays shareable.

No JS? Fill the form by hand. The geolocation button needs JavaScript.